Vientiane, Lao Peoples Republic

1:30 AM +07 on August 19, 2017 (GMT +0700)
Wattay International

Weather History for VLVT - March, 2014

Change the Weather History Date:

Monday, March 10, 2014

  Actual Average Record
Temperature  
Mean Temperature 84 °F -  
Max Temperature 91 °F 82 °F 100 °F (2016)
Min Temperature 77 °F 72 °F 64 °F (2004)
Cooling Degree Days 19    
Growing Degree Days 34 (Base 50)    
Moisture  
Dew Point 71 °F    
Average Humidity 63    
Maximum Humidity 78    
Minimum Humidity 44    
Precipitation  
Precipitation 0.00 in 0.07 in - ()
Sea Level Pressure  
Sea Level Pressure 29.88 in    
Wind  
Wind Speed 3 mph ()    
Max Wind Speed 7 mph    
Max Gust Speed -    
Visibility 2.8 miles    
Events      
Averages and records for this station are not official NWS values.
T = Trace of Precipitation, MM = Missing Value Source: Averaged Metar Reports

Daily Weather History Graph

Daily Weather History Graph

Search for Another Location

Airport or City:

Trip Planner

Search our weather history database for the weather conditions in past years. The results will help you decide how hot, cold, wet, or windy it might be!

Date:

Astronomy

Mar. 10, 2014 Rise Set
Actual Time 6:22 AM +07 6:18 PM +07
Civil Twilight 6:00 AM +07 6:40 PM +07
Nautical Twilight 5:35 AM +07 7:05 PM +07
Astronomical Twilight 5:09 AM +07 7:30 PM +07
Moon 1:08 PM +07 (3/10) 1:35 AM +07 (3/10)
Length of Visible Light 12h 39m
Length of Day
11h 56m
Waxing Gibbous, 65% of the Moon is Illuminated
Mar 10
Waxing Gibbous
Mar 17
Full
Mar 24
Last Quarter
Mar 31
New
Apr 7
First Quarter

Hourly Weather History & Observations

Time (+07) Temp. Heat Index Dew Point Humidity Pressure Visibility Wind Dir Wind Speed Gust Speed Precip Events Conditions
12:00 AM 80.6 °F 83.9 °F 69.8 °F 70% 29.83 in 0.6 mi East 2.3 mph - N/A   Mist
1:00 AM 81 °F - 71 °F 63% 29.82 in 1 mi West 4.5 mph - -   Mist
4:00 AM 79 °F - 70 °F 68% 29.81 in 1 mi North 2.2 mph - -   Mist
6:00 AM 77.0 °F - 69.8 °F 78% 29.83 in 0.6 mi North 2.3 mph - N/A   Scattered Clouds
6:30 AM 77.0 °F - 69.8 °F 78% 29.83 in 0.6 mi North 2.3 mph - N/A   Scattered Clouds
7:00 AM 77 °F - 68 °F 68% 29.89 in 2 mi North 2.2 mph - -   Mist
7:00 AM 77.0 °F - 68.0 °F 74% 29.92 in 1.9 mi East 2.3 mph - N/A   Scattered Clouds
8:00 AM 77.0 °F - 68.0 °F 74% 29.95 in 2.5 mi East 2.3 mph - N/A   Scattered Clouds
8:30 AM 77.0 °F - 68.0 °F 74% 29.95 in 2.5 mi East 2.3 mph - N/A   Scattered Clouds
9:00 AM 80.6 °F 83.9 °F 69.8 °F 70% 29.98 in 2.5 mi ESE 2.3 mph - N/A   Scattered Clouds
9:30 AM 80.6 °F 83.9 °F 69.8 °F 70% 29.98 in 2.5 mi ESE 2.3 mph - N/A   Scattered Clouds
10:00 AM 83 °F - 71 °F 59% 29.95 in 3 mi East 4.5 mph - -   Partly Cloudy
10:00 AM 82.4 °F 87.2 °F 71.6 °F 70% 29.98 in 3.1 mi East 4.6 mph - N/A   Mostly Cloudy
10:30 AM 82.4 °F 87.2 °F 71.6 °F 70% 29.98 in 3.1 mi East 2.3 mph - N/A   Mostly Cloudy
11:00 AM 84.2 °F 89.6 °F 71.6 °F 66% 29.98 in 3.7 mi ESE 2.3 mph - N/A   Mostly Cloudy
1:00 PM 89 °F - 72 °F 47% 29.87 in 4 mi SE 4.5 mph - -   Haze
1:00 PM 89.6 °F 96.2 °F 71.6 °F 55% 29.92 in 4.3 mi SE 4.6 mph - N/A   Partly Cloudy
1:30 PM 89.6 °F 96.2 °F 71.6 °F 55% 29.92 in 4.3 mi SE 4.6 mph - N/A   Partly Cloudy
2:00 PM 89.6 °F 96.2 °F 71.6 °F 55% 29.86 in 4.3 mi SE 2.3 mph - N/A   Scattered Clouds
2:30 PM 89.6 °F 96.2 °F 71.6 °F 55% 29.86 in 4.3 mi SE 2.3 mph - N/A   Scattered Clouds
3:00 PM 89.6 °F 96.2 °F 71.6 °F 55% 29.83 in 4.3 mi SSE 2.3 mph - N/A   Partly Cloudy
3:30 PM 89.6 °F 96.2 °F 71.6 °F 55% 29.83 in 4.3 mi SSE 2.3 mph - N/A   Partly Cloudy
4:00 PM 91 °F - 72 °F 44% 29.77 in 4 mi SE 2.2 mph - -   Haze
4:00 PM 91.4 °F 98.4 °F 71.6 °F 52% 29.80 in 4.3 mi SE 2.3 mph - N/A   Scattered Clouds
4:30 PM 91.4 °F 98.4 °F 71.6 °F 52% 29.80 in 3.7 mi SE 2.3 mph - N/A   Scattered Clouds
7:00 PM 88 °F - 75 °F 57% 29.81 in 2 mi NE 2.2 mph - -   Mist
7:00 PM 87.8 °F 97.6 °F 75.2 °F 66% 29.83 in 3.1 mi NE 2.3 mph - N/A   Scattered Clouds
7:30 PM 87.8 °F 97.6 °F 75.2 °F 66% 29.83 in 2.5 mi NE 2.3 mph - N/A   Scattered Clouds
10:00 PM 83 °F - 72 °F 62% 29.91 in 2 mi East 6.7 mph - -   Mist
10:00 PM 82.4 °F 87.2 °F 71.6 °F 70% 29.95 in 1.9 mi East 2.3 mph - N/A   Mostly Cloudy